www.pogodaiklimat.ru

Погода и климат >> Архив погоды >> Греция >> Kalamata


ПОГОДА в Kalamata

  • Прогноз погоды в Kalamata
  • Монитор погоды в Kalamata
  • Климат города

АРХИВ ПОГОДЫ в Kalamata

Время (UTC), дата Ветер
(напр.,м/с)
 
Видим.   Явления Облачность Т
(С)
Тd
(С)
f
(%)
Тe
(С)
Тes
(С)
Комфортность P
(гПа)
Po
(гПа)
Тmin
(С)
Tmax
(С)
R
(мм)
R24
(мм)
S
(см)
15 9.10 штиль 0
{10}
10 км в посл. час дождь {гроза} 6/5 600 м
[Cu Sc Ac und]
+21.4 +17.4 78 +25 +26 комфорт 1018.1 1018.0
18 9.10 штиль 0
{4}
10 км 6/5 600 м
[Cu Sc Ac und]
+18.4 +16.5 89 +19 +19 1018.8 1019.0 +25.8 3
21 9.10 СЗ 4
{6}
10 км 4/3 600 м
[Cu med, cong Ac trans]
+16.8 +15.0 89 +16 +16 1019.0 1019.0
00 10.10 штиль 0
{6}
10 км 3/3 600 м
[Cu med, cong]
+15.2 +12.9 86 +15 +15 1018.8 1019.0
03 10.10 СЗ 4
{6}
10 км 3/3 600 м
[Cu med, cong]
+13.8 +10.5 80 +12 +12 1018.4 1018.0
06 10.10 штиль 0
{5}
10 км 3/3 600 м
[Cu med, cong]
+16.4 +10.9 70 +16 +17 1018.7 1019.0 +13.6
09 10.10 Ю 3
{4}
10 км 1/1 600 м
[Cu med, cong]
+22.6 +10.8 47 +25 +32 комфорт 1019.4 1019.0
12 10.10 Ю 3
{5}
10 км 3/1 600 м
[Cu med, cong Ac lent]
+24.2 +10.3 41 +25 +31 комфорт 1018.5 1019.0
15 10.10 Ю 3
{6}
10 км 1/1 600 м
[Cu med, cong]
+23.2 +14.0 56 +27 +27 душно 1018.1 1018.0
18 10.10 штиль 0
{5}
10 км 1/1 600 м
[Cu med, cong]
+18.0 +13.8 76 +18 +18 1019.3 1019.0 +24.6
21 10.10 СЗ 2
{4}
10 км 1/1 600 м
[Cu med, cong]
+15.6 +12.6 82 +15 +15 1019.9 1020.0
00 11.10 СЗ 2
{4}
10 км ясно +14.0 +11.0 82 +14 +14 1020.2 1020.0
03 11.10 СЗ 2
{5}
10 км ясно +13.6 +8.5 71 +13 +13 1019.6 1020.0
06 11.10 СЗ 3
{6}
10 км 3/0
[Ac trans]
+15.0 +9.7 71 +14 +15 1020.1 1020.0 +13.0
09 11.10 штиль 0
{6}
10 км ясно +24.4 +7.9 35 +25 +37 комфорт 1020.1 1020.0
12 11.10 Ю 5
{7}
10 км 3/3 600 м
[Cu hum]
+24.6 +8.7 36 +25 +28 комфорт 1019.3 1019.0
15 11.10 ЮВ 2
{7}
10 км 3/3 600 м
[Cu hum]
+23.8 +12.1 48 +26 +26 жарко 1018.8 1019.0
18 11.10 штиль 0
{5}
10 км 3/3 600 м
[Cu hum]
+18.6 +13.4 72 +19 +19 1020.0 1020.0 +25.1
21 11.10 штиль 0
{5}
10 км ясно +18.6 +9.6 56 +19 +19 1020.7 1021.0
00 12.10 штиль 0
{5}
10 км ясно +16.2 +8.8 62 +16 +16 1020.0 1020.0
03 12.10 С 3
{5}
10 км 5/3 600 м
[Cu hum Ac trans]
+16.8 +8.3 57 +17 +17 1019.6 1020.0
06 12.10 СЗ 4
{6}
10 км 3/1 1000 м
[Cu hum Ac trans]
+17.8 +9.4 58 +18 +18 1020.7 1021.0 +13.2
09 12.10 СЗ 2
{7}
10 км 3/3 600 м
[Cu hum Ac lent]
+24.6 +8.6 36 +25 +31 комфорт 1020.7 1021.0
12 12.10 ЮВ 3
{5}
10 км 6/5 750 м
[Cu Sc Ac lent]
+24.4 +9.7 39 +25 +28 комфорт 1019.4 1019.0
15 12.10 ЮВ 2
{5}
10 км 8/6 750 м
[Cu Sc Ac lent]
+22.8 +10.3 45 +25 +25 комфорт 1019.3 1019.0
18 12.10 СЗ 2
{3}
10 км 4/4 1000 м
[Sc]
+17.6 +12.5 72 +18 +18 1019.9 1020.0 +25.5
21 12.10 СЗ 3
{6}
10 км 4/4 1000 м
[Sc diur, vesp]
+17.0 +10.3 65 +17 +17 1020.3 1020.0
00 13.10 С 3
{5}
10 км 3/3 600 м
[Cu hum]
+18.2 +10.5 61 +19 +19 1020.0 1020.0
03 13.10 С 4
{6}
10 км 3/3 600 м
[Cu hum]
+17.8 +10.4 62 +18 +18 1019.2 1019.0
06 13.10 С 2
{6}
10 км 1/1 600 м
[Cu hum]
+18.6 +11.5 63 +20 +21 1019.4 1019.0 +16.0
09 13.10 З 3
{5}
10 км 3/3 600 м
[Cu hum]
+24.4 +11.0 43 +26 +31 жарко 1019.9 1020.0
12 13.10 ЮВ 3
{5}
10 км 5/5 600 м
[Sc Ac lent]
+25.6 +9.9 37 +26 +30 жарко 1019.0 1019.0
15 13.10 СЗ 1
{5}
10 км в посл. час морось 5/5 600 м
[Sc Ac und]
+24.0 +12.7 49 +26 +26 жарко 1018.8 1019.0
18 13.10 СЗ 1
{4}
10 км 4/4 600 м
[Sc Ac und]
+18.0 +13.6 75 +19 +19 1019.8 1020.0 +26.0 0.0
21 13.10 СЗ 2
{6}
10 км 4/3 600 м
[Cu hum Ac trans]
+16.6 +11.0 69 +17 +17 1020.5 1021.0
00 14.10 СЗ 3
{6}
10 км 4/3 600 м
[Cu hum Ac trans]
+16.4 +10.2 67 +16 +16 1020.1 1020.0
03 14.10 СЗ 3
{6}
10 км 3/3 600 м
[Cu hum]
+13.6 +9.8 78 +12 +12 1019.5 1020.0
06 14.10 З 2
{4}
10 км 5/1 750 м
[Cu hum Ac lent Ci fib]
+16.0 +10.5 70 +16 +17 1019.9 1020.0 +13.2
09 14.10 штиль 0
{4}
10 км 4/3 600 м
[Cu hum Ac lent Ci fib]
+24.2 +9.7 40 +25 +33 комфорт 1019.6 1020.0
12 14.10 Ю 4
{6}
10 км 6/4 900 м
[Sc Ac lent]
+25.6 +10.4 38 +26 +29 жарко 1017.7 1018.0
15 14.10 Ю 1
{6}
10 км 6/4 900 м
[Sc Ac lent Ci fib]
+23.2 +12.4 51 +26 +27 жарко 1017.5 1018.0
18 14.10 С 2
{3}
10 км 6/5 750 м
[Cu Sc Ac trans]
+19.4 +11.7 61 +21 +21 комфорт 1018.5 1019.0 +26.6
21 14.10 штиль 0
{4}
10 км 3/0
[Ac trans]
+15.6 +10.6 72 +15 +15 1018.3 1018.0
00 15.10 штиль 0
{3}
10 км 3/0
[Ac trans]
+14.2 +10.0 76 +14 +14 1018.5 1019.0
03 15.10 С 3
{4}
10 км 3/0
[Ac trans]
+14.0 +9.5 74 +13 +13 1017.6 1018.0
06 15.10 СЗ 2 10 км 6/1 750 м
[Cu hum Ac und]
+16.2 +10.7 70 +16 +17 1018.3 1018.0 +14.0
09 15.10 СЗ 2
{5}
10 км 8/1 750 м
[Cu hum Ac und]
+22.4 +12.4 53 +25 +28 комфорт 1018.9 1019.0
12 15.10 Ю 2
{5}
10 км 6/3 900 м
[Cu med, cong Ac und]
+25.0 +10.7 41 +26 +31 жарко 1017.7 1018.0
15 15.10 штиль 0
{5}
10 км 6/3 900 м
[Cu med, cong Ac und]
+22.6 +12.5 53 +25 +26 комфорт 1017.7 1018.0
18 15.10 штиль 0
{2}
10 км 6/3 900 м
[Cu med, cong Ac und]
+19.0 +14.1 73 +20 +20 1018.8 1019.0 +25.0
21 15.10 СЗ 3
{4}
10 км 3/3 600 м
[Cu med, cong]
+17.2 +12.8 75 +17 +17 1019.2 1019.0
00 16.10 СЗ 2
{4}
10 км 3/3 600 м
[Cu med, cong]
+15.2 +11.4 78 +15 +15 1019.3 1019.0
03 16.10 штиль 0
{4}
10 км 3/3 600 м
[Cu med, cong]
+14.4 +10.3 76 +14 +14 1019.2 1019.0
06 16.10 штиль 0
{3}
10 км 3/0
[Ac lent Ci fib]
+16.8 +11.1 69 +17 +18 1019.9 1020.0 +14.1
09 16.10 штиль 0
{4}
10 км 1/1 600 м
[Cu hum]
+24.4 +11.1 43 +26 +36 жарко 1019.9 1020.0

 

Местоположение метеостанции Kalamata (Греция): широта 37.07 долгота 22.02 высота над уровнем моря 8 м.

В архиве по умолчанию представлена погода в Kalamata за последнюю неделю. Архивные данные за месяц целиком и за предыдущие месяцы, начиная с января 2011 года, Вы можете получить, выбрав интересующий диапазон дат из раскрывающегося списка и нажав кнопку "Ввод!".


*Определитесь, кто Вы:
робот инопланетянин человек

Внимание! Время в таблицах - всемирное. Для получения местного времени необходимо прибавить поправку, которая в Kalamata равна 2 ч.

Смотрите также архив погоды в соседних городах и на ближайших метеорологических станциях:

Погода в Methoni (Греция) (39 км)
Погода в Tripolis (Греция) (61 км)
Погода в Andravida (Греция) (115 км)
Погода в Kythira (Греция) (125 км)
Погода в Elefsis (Греция) (175 км)
Погода в Athens (Греция) (177 км)
Погода в Kefalonia (Греция) (178 км)
Погода в El Venizelos (Греция) (192 км)
Погода в Tatoi (Греция) (193 км)
Погода в Aktion (Греция) (204 км)

Пояснения к столбцам:

Ветер - указаны скорость ветра в м/с - средняя за 10 мин, порывы в срок и между сроками (в фигурных скобках) и направление, откуда дует ветер: С - северный, СВ - северо-восточный, В - восточный, ЮВ - юго-восточный, Ю - южный, ЮЗ - юго-западный, З - западный, СЗ - северо-западный.
Видимость - горизонтальная дальность видимости в метрах или километрах. При видимости от 1 до 10 км при отсутствии осадков обычно наблюдается дымка, при ухудшении видимости до 1 км и менее - туман. В сухую погоду видимость может ухудшаться дымом, пылью или мглою.
Явления - указаны атмосферные явления, наблюдавшиеся в срок или в последний час перед сроком; фигурными скобками обозначены явления, наблюдавшиеся между сроками (за 1-3 часа до срока); квадратными скобками обозначены град или гололедные отложения с указанием их диаметра в мм.
Облачность - указаны через наклонную черту общая и нижняя облачность в баллах и высота нижней границы облаков в метрах; квадратными скобками обозначены формы облаков: Ci - перистые, Cs - перисто-слоистые, Cc - перисто-кучевые, Ac - высококучевые, As - высокослоистые, Sc - слоисто-кучевые, Ns - слоисто-дождевые, Cu - кучевые, Cb - кучево-дождевые. Подробнее классификацию облаков см. в Атласе облаков (PDF).
T - Температура воздуха - температура, измеренная на высоте 2 м над землей.
Td - Температура точки росы - температура, при понижении до которой содержащийся в воздухе водяной пар достигнет насыщения.
f - Относительная влажность воздуха - влажноcть воздуха, измеренная на высоте 2 м над землей.
Te - Эффективная температура - температура, которую ощущает одетый по сезону человек в тени. Характеристика душности погоды. При расчете учитывается влияние влажности воздуха и скорости ветра на теплоощущения человека.
Tes - Эффективная температура на солнце - температура, которую ощущает человек, с поправкой на солнечный нагрев. Характеристика знойности погоды. Зависит от высоты солнца над горизонтом, облачности и скорости ветра. Ночью, в пасмурную погоду, а также при ветре 12 м/с и более поправка равна нулю.
P - Атмосферное давление - приведенное к уровню моря атмосферное давление.
Po - Атмосферное давление - измеренное на уровне метеостанции атмосферное давление.
Tmin - Минимальная температура - минимум температуры воздуха на высоте 2 м над землей.
Tmax - Максимальная температура - максимум температуры воздуха на высоте 2 м над землей.
R - Количество осадков - Количество выпавших осадков за период времени, мм. При наведении курсора мыши на число - период времени, за который выпало указанное количество осадков.
R24 - Количество осадков - Количество выпавших осадков за 24 часа, мм.
S - Снежный покров - Высота снежного покрова, см. При наведении курсора мыши на число - состояние снежного покрова и степень покрытия местности в баллах.